Hourly Weather Chahimahi

Today, 12 June, Saturday

Time Temperature Precipitation Wind Pressure Humidity
00:00 +15°C° 0 mm 1 mps 683 mmHg 86%
01:00 +15°C° 0 mm 1 mps 683 mmHg 85%
02:00 +14°C° 0 mm 1 mps 683 mmHg 84%
03:00 +14°C° 0 mm 1 mps 683 mmHg 84%
04:00 +15°C° 0 mm 1 mps 683 mmHg 81%
05:00 +16°C° 0 mm 1 mps 684 mmHg 79%
06:00 +18°C° 0 mm 1 mps 684 mmHg 77%
07:00 +19°C° 0 mm 1 mps 684 mmHg 73%
08:00 +20°C° 0 mm 2 mps 684 mmHg 69%
09:00 +21°C° 0 mm 2 mps 685 mmHg 62%
10:00 +21°C° 0.1 mm 2 mps 685 mmHg 61%
11:00 +22°C° 0.1 mm 3 mps 685 mmHg 59%
12:00 +22°C° 0.1 mm 3 mps 685 mmHg 57%
13:00 +22°C° 0.1 mm 3 mps 684 mmHg 59%
14:00 +21°C° 0.1 mm 3 mps 684 mmHg 61%
15:00 +21°C° 0.1 mm 2 mps 684 mmHg 63%
16:00 +21°C° 0.1 mm 2 mps 684 mmHg 65%
17:00 +20°C° 0.1 mm 2 mps 684 mmHg 67%
18:00 +21°C° 0.1 mm 1 mps 684 mmHg 69%
19:00 +20°C° 0.1 mm 1 mps 684 mmHg 74%
20:00 +18°C° 0.1 mm 1 mps 684 mmHg 78%
21:00 +16°C° 0.1 mm 1 mps 684 mmHg 82%
22:00 +16°C° 0 mm 1 mps 684 mmHg 81%
23:00 +16°C° 0 mm 1 mps 684 mmHg 81%

Tomorrow, 13 June, Sunday

Time Temperature Precipitation Wind Pressure Humidity
00:00 +16°C° 0 mm 1 mps 683 mmHg 80%
01:00 +16°C° 0 mm 1 mps 683 mmHg 79%
02:00 +16°C° 0 mm 1 mps 683 mmHg 78%
03:00 +16°C° 0 mm 1 mps 683 mmHg 78%
04:00 +18°C° 0 mm 1 mps 683 mmHg 75%
05:00 +19°C° 0 mm 1 mps 683 mmHg 72%
06:00 +20°C° 0 mm 1 mps 683 mmHg 69%
07:00 +21°C° 0 mm 1 mps 683 mmHg 64%
08:00 +21°C° 0 mm 2 mps 683 mmHg 58%
09:00 +24°C° 0 mm 2 mps 683 mmHg 52%
10:00 +24°C° 0 mm 3 mps 683 mmHg 52%
11:00 +25°C° 0 mm 3 mps 683 mmHg 52%
12:00 +25°C° 0 mm 3 mps 683 mmHg 52%
13:00 +25°C° 0.2 mm 3 mps 683 mmHg 55%
14:00 +24°C° 0.2 mm 3 mps 683 mmHg 58%
15:00 +24°C° 0.2 mm 3 mps 683 mmHg 62%
16:00 +22°C° 0.1 mm 3 mps 683 mmHg 66%
17:00 +21°C° 0.1 mm 3 mps 683 mmHg 69%
18:00 +21°C° 0.1 mm 3 mps 683 mmHg 73%
19:00 +20°C° 0.1 mm 3 mps 683 mmHg 77%
20:00 +19°C° 0.1 mm 2 mps 683 mmHg 81%
21:00 +18°C° 0.1 mm 2 mps 683 mmHg 84%
22:00 +17°C° 0.2 mm 2 mps 683 mmHg 84%
23:00 +17°C° 0.2 mm 2 mps 682 mmHg 84%

Day after tomorrow, 14 June, Monday

Time Temperature Precipitation Wind Pressure Humidity
00:00 +17°C° 0.2 mm 2 mps 682 mmHg 84%
01:00 +17°C° 0.1 mm 2 mps 682 mmHg 84%
02:00 +16°C° 0.1 mm 3 mps 682 mmHg 83%
03:00 +16°C° 0.1 mm 3 mps 682 mmHg 83%
04:00 +17°C° 0 mm 2 mps 682 mmHg 81%
05:00 +18°C° 0 mm 2 mps 683 mmHg 79%
06:00 +18°C° 0 mm 2 mps 683 mmHg 77%
07:00 +20°C° 0 mm 2 mps 683 mmHg 72%
08:00 +21°C° 0 mm 2 mps 683 mmHg 67%
09:00 +22°C° 0 mm 3 mps 683 mmHg 62%
10:00 +24°C° 0 mm 3 mps 683 mmHg 61%
11:00 +24°C° 0 mm 3 mps 683 mmHg 61%
12:00 +25°C° 0 mm 3 mps 683 mmHg 60%
13:00 +25°C° 0.1 mm 3 mps 683 mmHg 61%
14:00 +25°C° 0.1 mm 2 mps 683 mmHg 63%
15:00 +24°C° 0.1 mm 2 mps 683 mmHg 64%
16:00 +24°C° 0 mm 2 mps 683 mmHg 66%
17:00 +23°C° 0 mm 1 mps 683 mmHg 68%
18:00 +23°C° 0 mm 1 mps 683 mmHg 70%
19:00 +22°C° 0 mm 1 mps 683 mmHg 74%
20:00 +20°C° 0 mm 1 mps 683 mmHg 78%
21:00 +19°C° 0 mm 1 mps 683 mmHg 82%
22:00 +19°C° 0 mm 1 mps 683 mmHg 81%
23:00 +18°C° 0 mm 2 mps 682 mmHg 80%

15 June, Tuesday

Time Temperature Precipitation Wind Pressure Humidity
00:00 +17°C° 0 mm 2 mps 682 mmHg 80%
01:00 +17°C° 0 mm 2 mps 682 mmHg 77%
02:00 +17°C° 0 mm 2 mps 682 mmHg 74%
03:00 +17°C° 0 mm 2 mps 681 mmHg 71%
04:00 +18°C° 0 mm 2 mps 681 mmHg 68%
05:00 +19°C° 0 mm 2 mps 681 mmHg 65%
06:00 +20°C° 0 mm 2 mps 681 mmHg 62%
07:00 +22°C° 0 mm 3 mps 681 mmHg 57%
08:00 +25°C° 0 mm 3 mps 681 mmHg 51%
09:00 +27°C° 0 mm 4 mps 681 mmHg 46%
10:00 +28°C° 0 mm 4 mps 681 mmHg 45%
11:00 +29°C° 0 mm 4 mps 681 mmHg 43%
12:00 +29°C° 0 mm 4 mps 680 mmHg 42%
13:00 +29°C° 0 mm 3 mps 680 mmHg 43%
14:00 +29°C° 0 mm 3 mps 680 mmHg 44%
15:00 +29°C° 0 mm 2 mps 680 mmHg 45%
16:00 +28°C° 0 mm 2 mps 680 mmHg 53%
17:00 +27°C° 0 mm 1 mps 680 mmHg 61%
18:00 +25°C° 0 mm 1 mps 680 mmHg 69%
19:00 +24°C° 0 mm 1 mps 680 mmHg 71%
20:00 +22°C° 0 mm 1 mps 680 mmHg 74%
21:00 +21°C° 0 mm 1 mps 680 mmHg 76%
22:00 +20°C° 0 mm 2 mps 680 mmHg 73%
23:00 +19°C° 0 mm 2 mps 680 mmHg 70%

16 June, Wednesday

Time Temperature Precipitation Wind Pressure Humidity
00:00 +19°C° 0 mm 2 mps 680 mmHg 67%
01:00 +19°C° 0 mm 2 mps 681 mmHg 66%
02:00 +18°C° 0 mm 2 mps 681 mmHg 64%
03:00 +18°C° 0 mm 2 mps 681 mmHg 63%
04:00 +19°C° 0 mm 2 mps 682 mmHg 63%
05:00 +20°C° 0 mm 2 mps 682 mmHg 64%
06:00 +22°C° 0 mm 1 mps 683 mmHg 65%
07:00 +23°C° 0 mm 2 mps 683 mmHg 65%
08:00 +24°C° 0 mm 3 mps 683 mmHg 64%
09:00 +25°C° 0 mm 3 mps 683 mmHg 64%
10:00 +25°C° 0 mm 3 mps 683 mmHg 64%
11:00 +25°C° 0 mm 3 mps 684 mmHg 65%
12:00 +25°C° 0 mm 3 mps 684 mmHg 65%
13:00 +25°C° 0 mm 3 mps 683 mmHg 66%
14:00 +25°C° 0 mm 2 mps 683 mmHg 67%
15:00 +25°C° 0 mm 1 mps 683 mmHg 69%
16:00 +25°C° 0 mm 1 mps 683 mmHg 69%
17:00 +24°C° 0 mm 1 mps 683 mmHg 69%
18:00 +24°C° 0 mm 1 mps 683 mmHg 69%
19:00 +23°C° 0 mm 1 mps 683 mmHg 72%
20:00 +22°C° 0 mm 1 mps 683 mmHg 75%
21:00 +21°C° 0 mm 1 mps 683 mmHg 78%
22:00 +21°C° 0 mm 1 mps 683 mmHg 79%
23:00 +20°C° 0 mm 1 mps 683 mmHg 81%

17 June, Thursday

Time Temperature Precipitation Wind Pressure Humidity
00:00 +20°C° 0 mm 1 mps 683 mmHg 82%
01:00 +20°C° 0 mm 1 mps 683 mmHg 82%
02:00 +20°C° 0 mm 1 mps 683 mmHg 83%
03:00 +20°C° 0 mm 1 mps 683 mmHg 83%
04:00 +20°C° 0 mm 1 mps 684 mmHg 83%
05:00 +19°C° 0 mm 2 mps 684 mmHg 83%
06:00 +20°C° 0 mm 2 mps 684 mmHg 83%
07:00 +20°C° 0 mm 2 mps 685 mmHg 81%
08:00 +20°C° 0 mm 3 mps 685 mmHg 80%
09:00 +21°C° 0 mm 3 mps 685 mmHg 78%
10:00 +21°C° 0 mm 3 mps 685 mmHg 76%
11:00 +22°C° 0 mm 3 mps 685 mmHg 75%
12:00 +22°C° 0 mm 3 mps 685 mmHg 73%
13:00 +22°C° 0 mm 3 mps 685 mmHg 75%
14:00 +21°C° 0 mm 3 mps 685 mmHg 76%
15:00 +21°C° 0 mm 3 mps 685 mmHg 78%
16:00 +20°C° 0 mm 2 mps 685 mmHg 80%
17:00 +20°C° 0 mm 2 mps 685 mmHg 82%
18:00 +19°C° 0 mm 2 mps 685 mmHg 84%
19:00 +19°C° 0 mm 2 mps 685 mmHg 85%
20:00 +20°C° 0 mm 1 mps 686 mmHg 86%
21:00 +19°C° 0 mm 1 mps 686 mmHg 87%
22:00 +19°C° 0 mm 1 mps 685 mmHg 88%
23:00 +19°C° 0 mm 1 mps 685 mmHg 88%
Show more

We Need Your Consent

Meteoprog and our Service Providers may store and access personal data such as cookies, device identifiers or other similar technologies on your device and process such data to personalise content and ads, as well as provide social media features and to analyse the traffic.

  • Store and/or access information on your device

    Cookies, device identifiers or other information can be stored or accessed on your device for the purposes indicated above.

  • Personalised ads and content, ad and content measurement, audience insights, and products development

    Ads and content can be personalised based on a profile. More data can be added to better personalise ads and content. Ad and content performance can be measured. Insights about the audience who saw the ads and content can be derived. Such data can be used to develop or improve user’s experience, systems and software.

By clicking ‘I Agree’ you will allow the use of indicated cookies, device identifiers, web beacons or other similar technologies. Your settings can be changed in the browser on your device.

For certain purposes, legitimate interests may be relied on, rather than consent. You can read more about this in our Privacy and Cookie Policy.